TimeEST,TemperatureF,Dew PointF,Humidity,Sea Level PressureIn,VisibilityMPH,Wind Direction,Wind SpeedMPH,Gust SpeedMPH,PrecipitationIn,Events,Conditions,WindDirDegrees,DateUTC
12:52 AM,32.0,19.9,61,30.47,10.0,SSE,4.6,-,N/A,,Overcast,160,2013-11-29 05:52:00
1:52 AM,28.0,19.9,72,30.47,10.0,Calm,Calm,-,N/A,,Partly Cloudy,0,2013-11-29 06:52:00
2:52 AM,25.0,19.0,78,30.48,10.0,WSW,6.9,-,N/A,,Partly Cloudy,240,2013-11-29 07:52:00
3:52 AM,24.1,19.9,84,30.49,10.0,SW,4.6,-,N/A,,Clear,230,2013-11-29 08:52:00
4:52 AM,23.0,19.0,85,30.50,10.0,Variable,3.5,-,N/A,,Clear,0,2013-11-29 09:52:00
5:52 AM,24.1,18.0,77,30.52,10.0,Calm,Calm,-,N/A,,Scattered Clouds,0,2013-11-29 10:52:00
6:52 AM,26.1,18.0,71,30.56,10.0,NNW,4.6,-,N/A,,Scattered Clouds,340,2013-11-29 11:52:00
7:52 AM,28.0,19.0,69,30.58,10.0,Variable,4.6,-,N/A,,Partly Cloudy,0,2013-11-29 12:52:00
8:52 AM,30.9,19.9,64,30.61,10.0,West,5.8,-,N/A,,Partly Cloudy,260,2013-11-29 13:52:00
9:52 AM,37.0,19.9,50,30.62,10.0,NNW,15.0,19.6,N/A,,Clear,330,2013-11-29 14:52:00
10:52 AM,39.0,17.1,41,30.63,10.0,NW,11.5,20.7,N/A,,Clear,320,2013-11-29 15:52:00
11:52 AM,41.0,17.1,38,30.62,10.0,NW,15.0,21.9,N/A,,Clear,320,2013-11-29 16:52:00
12:52 PM,41.0,18.0,40,30.62,10.0,NNW,12.7,18.4,N/A,,Partly Cloudy,330,2013-11-29 17:52:00
1:52 PM,42.1,17.1,37,30.61,10.0,NNW,11.5,-,N/A,,Partly Cloudy,330,2013-11-29 18:52:00
2:52 PM,41.0,17.1,38,30.62,10.0,North,6.9,-,N/A,,Partly Cloudy,350,2013-11-29 19:52:00
3:52 PM,39.9,18.0,41,30.64,10.0,North,6.9,-,N/A,,Partly Cloudy,360,2013-11-29 20:52:00
4:52 PM,37.9,18.0,45,30.66,10.0,North,8.1,-,N/A,,Partly Cloudy,350,2013-11-29 21:52:00
5:52 PM,35.1,18.0,50,30.67,10.0,NNE,4.6,-,N/A,,Clear,20,2013-11-29 22:52:00
6:52 PM,35.1,18.0,50,30.69,10.0,NNE,8.1,-,N/A,,Clear,30,2013-11-29 23:52:00
7:52 PM,33.1,18.0,54,30.70,10.0,NNE,5.8,-,N/A,,Clear,30,2013-11-30 00:52:00
8:52 PM,28.9,18.0,64,30.71,10.0,Calm,Calm,-,N/A,,Clear,0,2013-11-30 01:52:00
9:52 PM,30.9,18.0,59,30.72,10.0,North,3.5,-,N/A,,Clear,360,2013-11-30 02:52:00
10:52 PM,27.0,18.0,69,30.73,10.0,Calm,Calm,-,N/A,,Clear,0,2013-11-30 03:52:00
11:52 PM,26.1,18.0,71,30.73,10.0,Calm,Calm,-,N/A,,Clear,0,2013-11-30 04:52:00